* Astronomy

Members Login
Username 
 
Password 
    Remember Me  
Post Info TOPIC: Asteroid 2012 JV11


L

Posts: 131433
Date:
Asteroid 2012 JV11
Permalink  
 


Orbital elements:
2012 JV11                                                Earth MOID = 0.0092 AU
Epoch 2012 Mar. 14.0 TT = JDT 2456000.5                 MPC
M 319.30895              (2000.0)            P               Q
n   0.34853013     Peri.  330.32130     +0.82358695     +0.56718918
a   1.9997506      Node   355.12390     -0.51806767     +0.75154778
e   0.6813897      Incl.    0.66683     -0.23089052     +0.33685659
P   2.83           H   24.0           G   0.15           U   7

MPEC 2012 - K04

The 41 - 93 metre wide asteroid 2012 JV11 will make a close pass (6.7 lunar distances, 0.0172 AU), travelling at 19.52 km/second, to the Earth-Moon system on the 22nd May, 2012 @ 00:53 UT ±00:10. 

See more

The Lunar Distance (LD), the distance between Earth and the Moon, equals 384,401 km, (or 0.00256 AU).



__________________
Page 1 of 1  sorted by
 
Quick Reply

Please log in to post quick replies.



Create your own FREE Forum
Report Abuse
Powered by ActiveBoard